Temperature
21 20 19 19 19 19 22 23 23 23 22 22 22 22 21 20 20 20 21 20 20 20 20 19 19 19 19 19 19 19 19 19 19 19 19 19 19 19 19 19 19 19 19 19 19 19 19 19 18
20 20 20 19 20 21 22 23 23 23 23 23 23 22 21 20 20 21 20 20 20 20 20 20 19 19 19 19 19 19 19 19 19 19 19 19 19 19 19 19 19 19 19 19 19 19 19 18 18
20 20 20 19 20 21 23 23 23 23 23 23 22 22 21 21 21 21 20 20 20 20 20 20 19 19 19 19 19 19 19 19 19 19 19 19 19 19 19 19 19 19 19 19 19 19 18 18 18
20 20 20 20 22 22 23 23 23 23 24 23 22 21 21 21 21 21 21 20 20 20 20 20 20 20 19 19 19 19 19 19 19 19 19 19 19 19 19 19 19 19 19 19 19 19 18 18 18
21 20 20 21 22 23 24 24 24 23 23 23 22 21 21 21 21 21 21 20 20 20 20 20 20 20 19 19 19 19 19 19 19 19 19 19 19 19 19 19 19 19 19 18 18 18 18 18 18
21 20 20 21 22 24 24 24 24 23 23 22 22 21 20 21 21 21 21 20 20 20 20 20 20 20 20 19 19 19 19 19 19 19 19 19 19 19 19 19 19 19 18 18 18 18 18 18 18
21 20 21 22 22 23 24 24 24 23 23 22 22 20 20 20 21 21 21 20 20 20 20 20 20 20 20 19 19 19 19 19 19 19 19 19 19 19 19 19 19 19 18 18 18 18 18 18 18
22 20 22 22 23 23 24 24 24 23 23 23 22 21 20 21 21 21 20 20 20 20 20 20 20 20 20 19 19 19 19 19 19 19 19 19 19 19 19 19 19 18 18 18 18 18 18 18 18
22 20 21 22 23 23 24 24 24 24 23 22 22 22 21 21 21 20 20 20 20 20 20 20 20 20 20 19 19 19 19 19 19 19 19 19 19 19 18 18 18 18 18 18 18 18 18 18 18
22 21 23 23 23 23 24 24 24 23 22 22 22 22 21 21 21 21 20 20 20 20 20 20 20 20 20 20 19 19 19 19 19 19 19 19 19 18 18 18 18 18 18 18 18 18 18 18 18
22 22 23 24 24 24 24 24 24 23 22 22 22 21 21 21 21 21 21 20 20 20 20 20 20 20 20 20 19 19 19 19 19 19 19 19 19 19 18 18 18 18 18 18 18 18 18 18 18
23 24 25 25 25 25 24 24 23 23 23 23 23 22 21 21 21 21 21 21 20 20 20 20 20 20 20 19 20 19 19 19 19 19 19 19 19 19 18 18 18 18 18 18 18 18 18 18 18
24 24 25 25 25 25 24 23 23 23 23 23 22 22 21 21 21 21 21 21 20 20 20 20 20 20 20 20 19 19 19 19 19 19 19 19 19 19 19 19 18 18 18 18 18 18 18 18 18
25 24 24 25 25 25 24 23 23 22 22 22 22 21 21 21 21 21 21 21 21 20 20 20 20 20 20 20 19 19 19 19 19 19 19 19 19 19 19 19 18 18 18 18 18 18 18 18 18
25 24 24 24 25 25 24 23 23 23 22 22 21 21 21 21 21 21 21 21 21 21 20 20 20 20 20 20 19 19 19 19 19 19 19 19 19 19 19 19 19 18 18 18 18 18 18 18 18
24 24 24 25 24 24 24 22 22 22 22 21 21 21 21 21 21 21 21 21 21 21 20 20 20 20 20 20 19 19 19 19 19 19 19 19 19 19 19 19 19 18 18 18 18 18 18 18 18
23 23 24 24 24 24 23 22 22 22 22 21 21 21 21 21 21 21 21 21 21 21 20 20 20 20 20 20 19 19 19 19 19 19 19 19 19 19 19 19 19 19 19 18 18 18 18 18 18
24 23 24 24 24 23 22 22 22 22 22 21 21 21 21 21 21 21 21 21 21 21 20 20 20 20 20 20 19 19 19 19 19 19 19 19 19 19 19 19 19 19 18 18 18 18 18 18 18
24 24 24 24 24 23 22 22 22 22 21 21 21 21 21 21 21 21 21 21 21 21 20 20 20 20 20 20 20 19 19 19 19 19 19 19 19 19 19 19 19 18 18 18 18 18 18 18 18
24 24 24 24 24 23 22 21 22 21 21 21 21 21 21 21 21 21 21 21 21 21 21 20 20 20 20 20 20 19 19 19 19 19 19 19 19 19 19 19 19 19 18 18 18 18 18 18 18
24 24 24 24 23 23 22 22 21 21 21 21 21 21 21 21 21 21 21 21 21 21 21 20 20 20 20 20 19 19 19 19 19 19 19 19 19 19 18 18 19 18 19 18 18 18 18 18 18
24 25 25 24 22 21 22 21 21 20 20 20 20 20 20 21 21 21 21 21 21 21 20 20 20 20 20 19 19 19 19 19 19 19 19 19 18 18 18 18 18 18 18 18 18 18 18 18 18
25 25 24 23 22 21 21 21 20 20 20 20 20 20 20 21 21 21 21 21 21 21 20 20 20 20 20 19 19 19 19 19 19 19 19 19 18 18 18 18 18 18 18 18 18 18 18 18 18
25 23 22 20 20 21 21 21 21 19 20 20 20 20 20 20 21 21 21 20 20 21 20 20 20 20 20 19 19 19 19 19 19 19 18 18 18 18 18 18 18 18 18 18 18 18 18 18 18
24 22 21 22 20 21 20 21 20 20 20 20 20 20 20 20 20 21 20 20 20 20 20 20 20 20 19 19 19 19 19 18 18 18 18 18 18 18 18 18 18 18 18 18 18 18 18 18 18
23 22 21 22 21 20 20 20 21 21 21 21 20 20 20 20 20 21 21 21 21 20 20 20 20 20 19 19 19 19 18 18 18 18 18 18 18 18 18 18 18 18 17 17 17 18 18 18 17
23 21 21 19 20 20 20 20 21 20 20 20 20 20 20 20 20 20 20 20 20 20 20 20 20 20 19 19 19 19 18 18 18 18 18 18 18 18 18 18 17 17 17 17 17 17 17 17 17
23 20 18 19 20 21 22 21 20 20 19 19 19 19 20 20 20 20 20 20 20 20 20 19 19 19 19 19 18 18 18 18 18 18 18 18 18 17 17 17 17 17 17 17 17 17 17 17 17
23 21 18 17 18 20 21 21 21 20 19 19 19 19 20 20 20 20 20 20 20 19 19 19 19 19 19 19 18 18 18 17 17 17 17 17 17 17 17 17 17 17 17 17 17 17 17 16 16
23 21 19 21 19 18 19 20 21 19 19 19 19 19 19 20 20 20 20 19 19 19 19 19 19 19 19 18 18 18 18 17 17 17 17 17 17 17 17 17 17 17 17 17 16 16 16 16 16
Wind_Speed
10 8 3 1 2 3 3 3 1 2 3 3 5 6 6 3 1 1 2 1 2 1 1 1 3 3 4 5 6 6 6 6 7 7 7 8 8 8 8 9 10 10 11 12 14 15 15 15 14
7 5 1 1 3 3 3 3 3 3 5 5 5 5 5 3 2 2 1 1 2 1 2 2 4 4 5 6 7 7 7 7 7 7 8 8 8 8 8 9 9 10 11 12 14 15 15 14 14
7 3 0 2 2 1 1 1 4 5 4 2 4 4 3 2 2 1 0 1 2 2 2 2 5 5 6 6 6 6 6 7 7 8 8 8 8 7 7 8 9 10 11 11 13 14 14 14 13
3 1 1 3 2 2 2 2 4 4 4 5 4 4 3 3 2 2 3 3 3 2 2 2 5 5 5 5 6 6 7 7 8 8 8 8 7 7 6 7 9 10 10 10 12 13 13 13 13
1 2 4 3 3 2 0 2 2 3 3 4 4 4 3 4 5 6 4 4 3 2 2 2 4 5 5 5 6 6 6 7 7 8 8 8 7 6 6 7 9 10 10 10 11 12 13 12 12
2 3 4 2 3 3 1 2 3 4 4 3 4 3 2 2 4 4 4 3 3 2 3 3 3 4 4 5 5 5 6 7 7 8 8 8 7 7 7 8 9 10 11 11 11 12 12 11 11
2 3 1 0 1 2 2 2 3 4 4 3 3 4 1 1 3 4 4 4 4 4 4 4 3 3 3 4 4 5 6 7 7 7 7 7 7 8 9 10 10 10 11 10 11 11 11 10 11
2 3 2 0 0 1 1 2 2 4 3 4 4 5 3 3 5 6 6 5 5 4 4 4 4 4 3 3 4 5 6 7 7 7 7 7 7 8 10 10 10 11 11 11 11 11 11 10 10
2 4 0 2 3 2 1 2 1 3 5 3 3 3 4 9 8 7 5 4 3 3 3 4 4 4 4 3 3 4 5 6 6 6 7 6 5 5 7 9 10 11 11 10 11 10 10 9 9
3 2 4 4 4 3 1 2 2 3 3 3 5 6 9 9 8 7 5 2 1 1 2 3 3 3 3 3 3 3 3 4 4 4 4 5 5 5 7 8 9 10 9 9 10 9 8 7 5
3 3 2 1 3 3 2 2 3 5 2 4 7 10 10 9 7 6 4 2 1 0 1 2 2 3 3 3 3 3 3 3 4 5 5 4 5 5 5 5 5 6 7 6 7 7 5 5 4
2 2 1 1 2 3 3 3 3 2 2 5 9 12 11 9 7 6 5 3 2 1 1 2 2 2 2 3 3 3 3 3 3 4 4 4 3 4 4 4 4 5 4 5 4 4 4 5 4
1 1 1 2 3 3 5 3 3 2 5 10 11 10 10 8 6 4 4 3 2 1 1 1 2 2 2 2 2 3 3 3 3 3 4 4 3 3 3 3 4 4 4 4 3 3 3 3 3
1 2 3 3 3 3 6 3 3 2 7 10 10 8 8 7 6 4 4 3 3 2 2 1 2 2 2 2 2 2 2 2 3 3 3 3 3 2 3 3 3 3 3 3 3 3 3 2 2
2 4 5 3 2 2 6 4 1 4 8 9 8 7 6 4 5 5 5 4 4 3 2 3 3 2 3 2 2 2 2 3 3 2 2 2 2 2 2 3 2 2 3 4 3 3 3 2 2
4 5 2 2 2 3 6 1 1 4 8 7 6 6 5 3 4 4 4 3 3 3 3 3 3 3 3 2 2 2 3 3 2 2 2 2 2 3 3 3 2 2 3 3 3 3 3 2 2
5 2 1 2 2 3 4 2 2 4 7 6 6 5 5 3 2 3 4 4 4 3 3 3 3 3 3 3 3 3 3 3 2 2 2 2 3 3 3 2 2 3 2 2 2 2 2 2 2
1 1 1 2 1 4 3 2 2 3 5 5 5 5 4 4 4 2 3 4 4 3 3 3 3 3 3 3 3 3 4 3 2 2 2 3 3 3 3 2 3 3 3 2 3 3 3 2 1
4 3 2 3 2 3 3 2 2 3 5 5 4 4 4 4 2 2 3 4 4 3 3 3 3 2 3 2 2 2 1 1 2 2 3 3 3 3 3 2 3 2 2 2 3 2 3 2 1
4 2 1 1 2 3 2 1 1 3 5 6 7 6 5 3 2 3 3 4 4 3 2 2 3 3 2 2 2 2 2 1 1 1 3 3 2 2 3 2 2 2 2 3 2 2 2 1 1
3 5 4 2 2 3 3 3 2 1 1 2 4 4 4 6 5 4 4 4 4 3 3 3 2 3 2 3 3 3 3 3 3 3 2 2 2 2 2 2 2 2 2 2 1 1 2 1 0
3 4 5 4 3 1 1 2 4 2 2 3 4 5 5 5 5 4 4 4 4 3 3 2 2 2 2 3 3 4 3 1 0 0 1 2 2 2 1 2 1 1 1 1 1 1 1 2 1
4 2 4 3 4 2 2 1 6 0 3 5 5 5 5 5 6 5 5 5 4 4 4 3 3 2 2 3 4 4 3 1 1 1 2 2 2 2 2 1 1 1 1 1 1 1 1 1 1
5 7 7 6 5 1 2 3 6 4 6 5 5 5 5 5 5 5 4 4 4 3 3 3 3 2 2 3 3 4 4 3 2 1 1 1 1 2 2 2 1 1 0 1 1 1 1 1 1
5 6 4 4 3 4 2 2 7 6 5 6 7 6 6 6 5 5 5 5 5 4 4 3 4 2 2 3 3 3 3 3 3 2 1 0 1 1 2 1 1 1 0 0 1 1 1 1 1
5 8 7 5 5 4 2 4 6 4 2 3 4 5 5 5 5 5 6 6 5 5 4 4 4 3 2 2 2 2 2 2 1 2 1 1 1 1 1 0 1 1 1 1 1 1 0 1 1
6 4 6 6 2 0 4 5 6 1 1 2 3 4 5 5 5 5 5 5 5 5 4 4 4 3 2 2 2 1 1 1 1 1 1 1 0 0 0 1 1 1 2 1 2 1 1 1 1
5 8 6 6 5 2 4 4 5 5 5 4 4 5 5 4 4 4 4 4 4 4 3 3 4 3 2 2 2 1 1 1 1 1 1 1 0 1 1 1 1 2 2 2 2 1 1 2 1
4 5 6 5 5 6 3 6 5 8 8 8 7 5 5 5 5 5 4 3 3 3 4 4 3 3 2 2 2 1 1 1 1 1 0 0 0 1 0 0 1 1 1 1 1 1 2 2 2
4 6 7 5 3 4 4 7 4 5 5 6 6 5 4 5 5 4 4 3 3 3 3 4 4 3 3 3 2 2 2 2 1 0 0 0 0 0 0 0 1 1 0 1 1 1 1 1 1
Wind_Direction
148 140 142 157 46 38 344 327 71 67 57 43 67 80 88 78 92 158 303 50 55 29 353 89 87 81 78 78 76 80 85 98 111 121 127 127 127 123 120 125 132 138 143 145 148 148 150 152 151
145 151 174 35 58 40 331 344 56 71 134 131 76 69 67 56 58 96 23 8 58 55 36 92 85 72 75 72 72 75 77 90 105 113 119 121 122 122 125 125 128 137 142 144 147 150 151 150 148
162 193 76 52 62 167 290 8 101 100 108 93 74 58 68 61 91 130 215 107 68 48 44 79 80 73 72 71 72 72 74 90 104 108 115 118 117 119 122 127 129 133 137 141 146 149 148 147 145
164 161 43 50 3 261 208 168 132 118 71 54 87 65 49 33 113 126 115 103 81 41 48 78 79 73 69 68 70 72 76 87 97 105 108 113 112 113 117 129 131 131 132 137 143 147 144 141 141
117 75 45 25 331 321 140 168 135 107 85 66 85 89 36 9 80 100 103 95 85 40 26 61 73 64 62 64 69 72 77 86 93 96 99 102 104 102 101 125 133 131 129 128 131 134 136 135 135
71 65 59 6 334 341 50 74 92 90 97 93 89 88 38 54 91 105 98 83 71 53 21 22 54 56 54 57 66 75 78 85 90 93 94 96 95 90 87 110 128 133 132 129 126 124 125 125 128
106 81 86 251 327 358 47 44 89 107 105 105 110 90 65 95 108 110 87 72 59 42 26 11 19 31 50 62 71 81 84 83 84 85 87 91 91 86 84 97 113 126 127 125 125 124 122 120 121
149 94 48 26 121 295 46 51 94 100 101 110 103 124 171 167 125 99 76 58 52 38 20 9 14 24 32 46 63 77 82 79 79 80 77 81 88 89 85 88 102 113 117 120 123 120 117 113 113
131 74 157 204 182 234 127 76 57 74 97 88 83 127 143 128 117 101 81 49 41 37 9 7 11 19 28 41 56 64 71 70 69 67 67 66 61 74 84 89 96 101 107 111 114 114 114 110 110
114 132 225 211 178 177 157 102 114 93 92 79 74 83 113 121 125 123 123 125 107 34 351 1 12 18 27 51 51 51 60 57 56 54 52 52 55 65 74 80 89 94 99 104 107 108 105 96 98
158 196 246 203 170 150 133 97 87 116 134 166 146 140 137 133 134 133 137 141 159 156 15 3 23 36 44 46 53 48 53 53 51 55 57 62 60 60 61 58 58 64 77 80 87 87 83 84 91
165 276 241 177 139 115 129 110 83 96 187 147 140 140 141 143 148 154 158 158 140 106 35 11 37 50 47 55 50 50 53 57 52 51 58 66 65 62 61 61 56 56 65 71 68 71 69 76 81
118 340 35 122 111 110 95 89 104 63 98 112 120 128 142 151 156 162 154 146 140 143 149 75 67 69 66 65 50 56 50 57 61 54 54 68 73 67 69 70 68 66 72 82 82 76 66 69 72
130 79 61 61 93 103 104 76 84 91 112 119 129 137 149 156 159 153 151 157 164 174 173 137 109 94 87 81 65 52 49 56 63 59 54 67 82 82 80 77 73 75 79 87 92 91 81 68 71
68 63 38 32 53 99 100 46 32 130 127 132 141 143 145 155 158 169 175 174 175 174 165 146 143 107 100 85 70 66 56 67 63 57 58 69 89 100 97 86 83 89 95 99 100 93 90 90 83
48 57 38 325 48 89 107 181 286 133 139 145 150 150 151 175 180 176 165 160 161 152 152 154 140 120 112 97 77 67 64 68 60 55 56 60 80 104 99 90 87 100 95 96 97 94 90 83 80
39 62 282 317 16 97 111 202 233 152 156 160 161 163 166 175 196 178 160 156 157 156 148 140 125 125 123 105 86 71 66 61 54 56 60 63 73 91 98 88 79 93 91 87 102 89 100 97 82
232 202 248 253 264 110 138 209 207 167 166 173 167 166 173 185 212 186 151 145 141 136 127 124 115 109 104 89 77 65 60 50 51 53 54 64 69 78 89 82 67 78 82 76 85 90 79 91 99
167 173 232 250 198 137 173 200 200 182 177 178 171 177 192 202 190 150 142 132 121 114 115 125 117 104 97 89 93 82 65 38 36 42 50 53 65 77 88 83 70 74 84 93 103 104 92 82 99
159 163 231 329 105 143 157 230 215 197 199 186 181 187 193 177 157 154 145 136 137 138 132 131 127 121 122 120 121 122 108 77 55 33 41 39 55 77 93 91 88 86 91 85 88 113 116 94 86
189 188 195 180 80 68 98 345 284 261 203 172 175 184 186 185 186 175 162 153 143 141 152 168 156 141 131 112 94 82 63 45 37 29 23 14 39 72 89 96 96 92 104 114 122 139 147 169 48
243 217 177 157 122 292 115 266 278 245 244 210 197 193 196 193 184 177 168 162 158 160 150 150 152 140 130 122 117 118 115 109 290 345 3 7 32 57 81 93 103 111 117 134 173 144 156 156 205
207 131 119 117 122 65 28 152 287 296 238 235 214 198 194 187 177 179 181 172 165 154 146 144 142 138 134 133 137 129 119 134 85 54 41 18 12 27 47 75 95 107 115 145 139 123 143 159 179
126 74 61 51 69 351 261 176 277 236 226 224 207 194 188 182 174 173 158 146 153 149 144 143 141 144 138 138 143 146 150 150 122 83 50 11 7 9 15 41 49 88 127 178 172 154 160 162 163
101 93 43 3 7 257 274 196 253 254 228 208 199 195 187 179 172 169 162 161 162 160 161 155 154 161 146 147 167 170 173 170 175 183 180 157 357 342 341 4 26 30 179 191 142 126 137 145 160
164 141 158 195 217 267 313 242 261 275 243 193 178 176 168 165 166 172 176 172 170 172 165 163 168 173 157 158 176 172 172 176 203 205 179 180 223 262 324 41 27 25 50 105 114 101 108 112 160
137 154 157 132 134 242 280 285 301 3 47 140 148 156 170 170 165 161 163 166 172 176 173 175 171 172 173 177 176 163 163 173 195 201 158 171 263 268 72 73 45 33 41 66 87 72 48 69 65
127 140 105 119 146 228 285 276 254 241 218 201 190 186 177 167 157 154 161 165 174 172 166 163 167 175 169 154 160 146 148 162 171 149 166 164 167 30 57 44 44 38 37 57 76 67 55 68 52
106 94 104 111 144 157 230 266 234 215 201 194 200 192 173 166 168 168 168 161 156 149 150 149 151 144 139 145 136 118 124 124 116 146 197 225 33 66 65 88 56 30 15 44 79 77 80 87 67
143 151 146 149 192 169 178 262 286 220 198 189 189 179 168 164 161 158 152 147 140 138 148 152 150 158 173 168 152 151 149 134 125 190 242 148 103 96 192 162 136 206 253 70 101 106 99 118 112
Height
1492 1492 1493 1495 1497 1502 1502 1493 1488 1488 1488 1489 1488 1488 1490 1493 1496 1500 1495 1492 1491 1490 1489 1488 1487 1486 1484 1483 1481 1479 1477 1475 1475 1477 1479 1480 1481 1482 1482 1482 1482 1483 1485 1487 1489 1492 1496 1499 1503
1493 1493 1496 1496 1501 1512 1504 1492 1490 1489 1489 1489 1490 1490 1491 1493 1494 1495 1494 1493 1492 1491 1490 1490 1489 1487 1486 1485 1483 1481 1479 1477 1477 1479 1480 1482 1483 1483 1483 1483 1483 1484 1486 1487 1490 1493 1497 1501 1504
1493 1495 1497 1497 1503 1509 1502 1492 1490 1489 1490 1490 1491 1492 1494 1495 1496 1496 1496 1495 1494 1493 1492 1491 1491 1489 1488 1487 1485 1484 1482 1480 1480 1481 1483 1484 1484 1485 1485 1484 1485 1486 1488 1490 1492 1495 1498 1502 1505
1495 1497 1497 1501 1503 1498 1494 1491 1489 1490 1491 1491 1492 1495 1496 1498 1498 1497 1497 1496 1496 1495 1494 1493 1492 1491 1490 1489 1488 1487 1485 1484 1484 1484 1485 1486 1486 1485 1484 1484 1486 1487 1489 1492 1494 1497 1500 1503 1506
1496 1497 1501 1506 1502 1495 1491 1490 1490 1491 1492 1493 1494 1496 1498 1499 1499 1499 1498 1498 1497 1497 1496 1495 1494 1493 1492 1491 1490 1489 1488 1488 1488 1488 1488 1488 1487 1486 1483 1482 1485 1488 1491 1493 1495 1498 1501 1504 1507
1497 1498 1508 1511 1503 1494 1492 1492 1491 1492 1494 1495 1496 1497 1500 1501 1500 1500 1500 1500 1500 1499 1498 1497 1496 1495 1494 1493 1492 1492 1491 1491 1491 1491 1491 1491 1490 1487 1483 1480 1484 1488 1492 1495 1498 1500 1502 1505 1507
1498 1501 1507 1507 1504 1498 1494 1493 1493 1494 1495 1496 1497 1499 1501 1502 1502 1502 1502 1502 1502 1501 1500 1499 1498 1497 1496 1495 1495 1494 1494 1494 1494 1494 1494 1494 1493 1491 1487 1484 1486 1490 1494 1498 1501 1503 1505 1506 1507
1497 1500 1505 1505 1504 1500 1495 1494 1495 1495 1497 1498 1498 1500 1501 1503 1503 1503 1504 1504 1504 1503 1502 1501 1500 1499 1498 1497 1497 1497 1497 1497 1497 1497 1497 1497 1496 1495 1493 1490 1491 1494 1498 1501 1504 1507 1508 1509 1511
1497 1504 1509 1504 1502 1498 1494 1495 1496 1497 1497 1499 1499 1500 1502 1503 1504 1505 1505 1505 1505 1505 1504 1503 1502 1501 1500 1500 1500 1500 1500 1500 1500 1500 1500 1500 1499 1499 1499 1498 1498 1500 1503 1505 1508 1510 1511 1513 1515
1497 1506 1502 1496 1495 1495 1495 1496 1497 1498 1499 1500 1501 1502 1504 1504 1505 1506 1507 1507 1507 1507 1506 1506 1505 1504 1503 1503 1502 1503 1503 1503 1503 1503 1503 1503 1502 1503 1503 1504 1504 1506 1507 1509 1511 1513 1515 1516 1518
1496 1499 1495 1493 1493 1494 1495 1497 1497 1499 1501 1500 1500 1502 1504 1506 1507 1508 1509 1509 1509 1509 1508 1508 1507 1507 1506 1506 1505 1506 1506 1506 1506 1506 1506 1506 1506 1506 1507 1508 1509 1510 1511 1513 1514 1516 1518 1519 1521
1495 1494 1493 1493 1493 1494 1496 1498 1499 1500 1500 1501 1501 1502 1505 1507 1508 1509 1510 1511 1511 1511 1511 1510 1510 1510 1509 1509 1509 1509 1509 1509 1509 1510 1510 1510 1510 1510 1510 1511 1512 1513 1515 1516 1517 1519 1520 1522 1523
1494 1494 1493 1493 1494 1496 1497 1499 1501 1502 1502 1502 1504 1505 1507 1508 1509 1511 1512 1512 1513 1513 1513 1513 1513 1513 1513 1512 1512 1512 1512 1513 1513 1513 1513 1513 1513 1513 1514 1514 1516 1516 1518 1519 1520 1521 1522 1524 1525
1494 1494 1495 1495 1496 1497 1499 1501 1502 1504 1504 1504 1505 1506 1508 1509 1511 1512 1512 1513 1514 1514 1515 1515 1515 1515 1515 1516 1516 1516 1516 1516 1516 1517 1517 1516 1516 1517 1517 1518 1518 1519 1520 1521 1522 1523 1524 1525 1526
1494 1496 1498 1497 1497 1499 1500 1505 1504 1504 1505 1505 1506 1508 1510 1511 1512 1513 1514 1514 1515 1516 1516 1517 1517 1517 1518 1518 1518 1519 1519 1519 1519 1519 1520 1519 1519 1520 1520 1520 1521 1522 1522 1523 1524 1525 1526 1527 1528
1497 1503 1508 1501 1499 1500 1505 1514 1506 1505 1505 1506 1508 1510 1511 1512 1513 1514 1515 1516 1516 1517 1518 1518 1518 1519 1519 1520 1521 1521 1521 1522 1522 1522 1522 1522 1522 1522 1522 1523 1523 1524 1524 1525 1526 1527 1527 1528 1528
1507 1514 1512 1505 1500 1501 1505 1511 1506 1506 1506 1507 1508 1510 1511 1512 1514 1514 1515 1516 1517 1518 1519 1519 1520 1520 1521 1522 1523 1523 1523 1524 1524 1524 1524 1524 1524 1524 1524 1524 1525 1525 1526 1526 1527 1528 1528 1529 1529
1514 1513 1512 1510 1503 1503 1507 1508 1505 1505 1506 1507 1509 1510 1511 1512 1514 1515 1516 1517 1518 1519 1520 1520 1521 1522 1523 1523 1524 1524 1525 1525 1525 1525 1525 1525 1525 1525 1526 1526 1526 1527 1527 1528 1528 1529 1529 1529 1529
1503 1508 1511 1507 1501 1505 1508 1509 1506 1505 1506 1507 1509 1510 1511 1513 1515 1516 1517 1518 1519 1520 1521 1521 1522 1523 1524 1524 1525 1525 1526 1526 1526 1526 1526 1526 1527 1527 1527 1527 1527 1528 1528 1528 1529 1529 1530 1530 1530
1502 1508 1509 1505 1500 1504 1510 1510 1506 1505 1505 1506 1507 1509 1510 1512 1514 1515 1516 1518 1519 1520 1521 1522 1522 1523 1524 1525 1525 1526 1526 1527 1527 1527 1527 1527 1527 1528 1528 1528 1528 1528 1528 1529 1529 1529 1529 1530 1530
1501 1505 1506 1507 1504 1505 1509 1514 1509 1505 1505 1506 1507 1509 1510 1511 1512 1514 1515 1517 1518 1520 1521 1522 1522 1523 1524 1525 1526 1526 1527 1527 1527 1527 1528 1528 1528 1528 1528 1528 1528 1528 1528 1529 1529 1529 1529 1529 1530
1504 1496 1498 1502 1512 1519 1514 1528 1513 1508 1507 1505 1506 1507 1508 1510 1511 1512 1514 1515 1517 1519 1520 1521 1522 1523 1524 1525 1526 1526 1527 1527 1527 1528 1528 1528 1528 1528 1528 1528 1528 1528 1528 1528 1528 1529 1529 1529 1529
1496 1492 1497 1503 1512 1520 1519 1527 1520 1510 1509 1506 1504 1505 1507 1508 1509 1511 1512 1514 1516 1518 1520 1521 1522 1523 1524 1524 1525 1526 1526 1527 1527 1528 1528 1528 1528 1528 1528 1528 1528 1528 1527 1527 1528 1528 1528 1528 1528
1491 1498 1504 1512 1520 1532 1524 1527 1524 1513 1506 1502 1502 1503 1505 1506 1508 1509 1511 1514 1515 1517 1519 1520 1521 1522 1523 1524 1525 1525 1526 1526 1527 1527 1527 1527 1528 1528 1528 1527 1527 1527 1527 1527 1527 1527 1527 1527 1527
1494 1511 1530 1533 1540 1536 1522 1524 1520 1502 1498 1498 1499 1500 1502 1504 1506 1508 1510 1512 1513 1515 1517 1519 1520 1521 1522 1523 1524 1525 1525 1526 1526 1526 1526 1527 1527 1527 1527 1527 1526 1526 1526 1526 1526 1526 1526 1526 1526
1497 1506 1529 1539 1542 1535 1524 1525 1509 1497 1495 1495 1497 1499 1501 1503 1505 1507 1508 1510 1512 1514 1516 1518 1519 1520 1521 1522 1523 1524 1525 1525 1525 1525 1525 1526 1526 1526 1525 1525 1525 1525 1525 1524 1524 1524 1524 1524 1524
1497 1505 1506 1525 1530 1535 1528 1518 1503 1495 1495 1495 1497 1498 1500 1502 1504 1506 1508 1509 1511 1513 1514 1516 1518 1519 1520 1521 1522 1522 1523 1524 1524 1524 1524 1524 1524 1524 1524 1524 1524 1524 1523 1523 1523 1523 1523 1523 1523
1488 1499 1513 1525 1537 1539 1528 1521 1515 1501 1498 1496 1496 1497 1498 1501 1503 1505 1507 1508 1510 1512 1513 1515 1517 1517 1518 1519 1520 1521 1521 1522 1522 1523 1523 1523 1523 1523 1523 1523 1523 1522 1522 1522 1522 1521 1521 1521 1521
1494 1501 1512 1523 1525 1537 1537 1524 1496 1494 1492 1493 1494 1495 1497 1499 1501 1504 1506 1508 1509 1511 1512 1513 1515 1516 1517 1518 1519 1520 1520 1520 1521 1521 1521 1521 1520 1521 1521 1521 1521 1520 1520 1520 1520 1520 1520 1520 1520
1485 1493 1505 1516 1524 1528 1531 1521 1489 1489 1489 1490 1492 1494 1497 1498 1501 1503 1505 1507 1508 1509 1510 1511 1513 1514 1515 1516 1517 1518 1518 1518 1519 1519 1519 1519 1518 1519 1519 1519 1519 1518 1518 1518 1517 1518 1518 1518 1518